CAPE
55 217 602 1021 1240 1087 833 791 981 1353 2204 2231 2245 2080 2298 1631 2477 1632 752 1941 1114 1049 1235 1015 1912 1544 2102 2091 2047 1810 2374 2064 1918
59 78 222 797 1253 1290 1038 810 969 1252 1929 2380 2511 2125 2506 2210 1657 2425 1085 1201 1798 1609 1139 1400 1358 1807 1773 1879 2012 2238 1847 2248 2357
27 53 132 695 1140 1452 1225 901 989 1142 1766 2420 2561 2678 2463 2620 2052 2182 2170 1075 1702 1427 1812 1118 1776 2203 2093 2261 2338 2642 2367 2483 2021
1 105 245 571 1209 1480 1472 1125 1087 1176 1372 2282 2760 2794 2733 2654 2772 2136 1992 2201 1746 2322 1537 2562 1436 2820 2549 2390 2389 2474 2658 2368 2171
0 9 364 506 887 1409 1680 1427 1222 1285 1520 2003 2678 3072 3058 2856 2820 2992 2512 1769 2118 2351 2908 1878 2855 2267 2388 2625 2429 2500 2529 2623 1937
0 1 58 450 910 1160 1596 1697 1555 1506 1584 1777 2592 3041 3160 3062 2958 2893 2949 2899 2013 2529 2541 3141 2403 3083 2710 2487 2588 2421 2737 2697 2615
0 2 10 475 758 1117 1426 1712 1842 1771 1723 1878 2066 2846 3120 3097 3146 3000 2976 2919 2976 2355 2854 2691 2870 2816 3053 3096 2830 2780 2660 2751 2778
5 29 201 438 676 1205 1190 1474 1818 2033 1980 1975 2046 2107 2901 2977 3057 3275 3042 3036 3023 3196 2810 2866 2913 2923 3005 3022 3211 3035 2803 2691 2802
0 0 14 19 32 74 284 1575 1878 1969 2077 2298 2212 2227 2371 2689 2904 3067 3445 3260 3216 3230 3294 3216 3235 3283 3144 3101 3223 3153 2793 2745 2798
0 0 0 0 0 0 16 199 1900 2132 2114 2163 2465 2429 2588 2613 2825 2987 3228 3478 3443 3385 3419 3488 3413 3447 3465 3225 3261 3061 2772 2625 2787
0 0 0 0 0 0 0 0 248 1089 2213 2172 2092 2378 2477 3167 3033 3056 3276 3469 3626 3673 3671 3688 3624 3638 3672 3564 3513 3156 2754 2553 2628
0 0 0 0 0 0 0 0 22 279 426 1913 2215 1994 2296 2314 3248 3263 3419 3586 3742 3854 3912 3880 3884 3815 3842 3837 3713 3366 2921 2501 2583
529 573 547 510 306 145 14 10 0 0 606 1460 1742 1883 2113 2759 2649 3175 3349 3711 3928 4018 4094 4076 4054 4024 3943 3919 3929 3744 3152 2739 2912
652 743 635 524 399 257 424 337 36 110 39 372 1810 2155 2467 2863 3298 3116 3430 3625 4062 4139 4202 4191 4098 4063 4096 4010 3940 3975 3498 2879 3245
532 964 887 546 364 104 403 632 215 50 290 655 976 1749 2634 3136 3267 3498 3649 3752 4105 4170 4096 4086 4032 4121 4037 4078 4116 3925 3783 3067 3002
1106 1369 1151 1431 1400 1288 1446 1291 2064 1885 2142 2340 1847 2951 2729 2935 3576 3805 3409 3887 3947 4092 4084 4063 4059 4027 3961 4157 4044 3961 3764 3272 2939
757 1659 1371 1055 1269 1683 2910 3684 3594 3225 3597 2921 2750 3335 3513 3517 3839 3941 3912 3804 4061 3996 3943 3928 3886 3847 3892 3816 3698 3702 3760 3306 2661
251 1112 2083 2367 2286 2340 2626 2527 2463 2387 2619 3294 3430 3200 3480 3737 3691 3769 3942 3887 3400 4074 3803 3633 3712 3659 3478 3291 3427 2120 855 1466 2303
186 481 1070 1755 2208 1919 2010 2074 2008 2150 2239 2500 3296 3792 3745 3650 3456 3578 3434 3761 3529 3361 2903 1979 1266 912 1322 1420 181 1 54 330 969
157 395 804 908 1712 1463 1338 1188 1402 1649 1922 2141 2416 2252 2279 1545 2037 1907 3915 3530 3962 3848 1381 768 449 18 0 0 0 0 0 0 0
CIN
-3 -5 -4 -15 -47 -79 -110 -101 -101 -96 -77 -110 -88 -65 -36 -65 -8 -52 -103 -22 -56 -46 -37 -53 -7 -38 -17 -21 -16 -11 -2 -10 -12
-5 -15 -4 -19 -48 -66 -115 -119 -134 -133 -116 -110 -94 -104 -44 -67 -101 -31 -112 -85 -29 -35 -39 -10 -13 -27 -32 -35 -15 -11 -9 -3 -6
-5 -8 -6 -10 -34 -49 -117 -155 -145 -149 -121 -131 -154 -121 -103 -80 -137 -102 -73 -127 -68 -66 -41 -56 -11 -25 -32 -31 -18 -2 -4 -2 -21
-1 -3 -12 -12 -20 -42 -95 -131 -137 -155 -152 -120 -99 -115 -135 -117 -82 -126 -121 -73 -106 -53 -73 -15 -38 -11 -23 -30 -24 -6 -1 -8 -24
0 -7 -12 -17 -20 -30 -46 -109 -158 -165 -172 -154 -160 -128 -106 -106 -104 -84 -124 -166 -113 -91 -36 -69 -16 -18 -15 -18 -36 -18 -8 -6 -40
-2 -4 -6 -10 -18 -20 -39 -76 -122 -157 -197 -209 -137 -105 -92 -92 -106 -116 -103 -109 -174 -105 -95 -41 -69 -13 -15 -35 -37 -46 -13 -9 -14
0 -11 -1 -12 -14 -22 -15 -48 -95 -143 -175 -165 -170 -124 -117 -123 -120 -127 -114 -106 -109 -155 -91 -119 -79 -71 -32 -17 -46 -50 -40 -22 -18
-73 -18 -6 -12 -7 -21 -26 -27 -61 -76 -98 -131 -146 -180 -163 -192 -189 -140 -141 -125 -113 -90 -131 -137 -134 -92 -70 -63 -32 -50 -63 -50 -32
0 0 -113 -78 -50 -39 -37 -15 -30 -67 -62 -83 -111 -149 -184 -216 -202 -193 -139 -143 -144 -136 -141 -131 -102 -107 -92 -89 -83 -87 -116 -99 -68
0 0 0 0 0 0 -82 -94 -35 -66 -78 -81 -86 -123 -167 -190 -205 -218 -197 -163 -155 -170 -148 -125 -136 -111 -102 -142 -138 -158 -178 -171 -118
0 0 0 0 0 0 0 0 -83 -83 -88 -112 -120 -132 -147 -144 -169 -207 -199 -180 -165 -147 -145 -151 -147 -136 -130 -128 -162 -191 -219 -214 -155
0 0 0 0 0 0 0 0 -80 -132 -117 -109 -124 -155 -183 -194 -173 -183 -199 -214 -197 -166 -139 -142 -149 -158 -131 -150 -184 -179 -205 -213 -160
-105 -113 -123 -167 -243 -269 -18 -119 0 0 -127 -123 -155 -199 -222 -204 -228 -218 -225 -222 -189 -157 -134 -133 -121 -138 -154 -156 -158 -145 -193 -196 -104
-180 -149 -137 -163 -221 -256 -185 -237 -335 -238 -233 -163 -142 -168 -181 -191 -211 -247 -251 -203 -152 -129 -107 -103 -116 -112 -116 -138 -147 -147 -169 -207 -103
-236 -150 -139 -154 -204 -363 -232 -190 -305 -356 -220 -172 -178 -108 -164 -183 -209 -228 -194 -184 -124 -114 -92 -94 -103 -98 -113 -123 -125 -144 -151 -229 -182
-89 -32 -48 -75 -88 -80 -69 -140 -105 -127 -150 -154 -157 -92 -137 -177 -167 -178 -185 -139 -129 -97 -95 -98 -102 -99 -108 -105 -100 -105 -119 -156 -198
-95 -6 -53 -147 -129 -61 -18 -29 -50 -99 -102 -155 -168 -120 -128 -143 -125 -130 -118 -100 -101 -86 -102 -95 -90 -91 -85 -81 -85 -75 -50 -124 -266
-204 -38 -17 -16 -17 -17 -51 -125 -173 -237 -238 -182 -155 -153 -148 -120 -110 -99 -88 -81 -107 -60 -75 -61 -54 -52 -45 -54 -53 -293 -635 -419 -207
-208 -127 -51 -9 -6 -37 -85 -148 -201 -202 -250 -224 -132 -86 -84 -81 -82 -60 -82 -55 -65 -67 -93 -242 -394 -497 -367 -356 -812 -98 -615 -677 -430
-197 -141 -84 -100 -20 -104 -172 -203 -179 -201 -218 -224 -196 -204 -188 -244 -161 -114 -14 -19 -1 -4 -351 -487 -544 -665 0 0 0 0 0 0 0
Wind_Speed
17 17 17 21 21 20 21 22 22 21 24 24 24 27 28 32 33 23 29 25 15 19 11 12 9 13 11 12 13 17 17 13 14
17 19 21 22 20 20 19 21 25 25 25 26 26 28 27 29 30 25 23 22 18 9 14 5 7 11 11 11 11 13 16 15 12
15 19 19 19 21 21 20 22 22 24 23 27 27 27 29 29 27 25 22 23 18 17 7 14 2 8 9 8 10 11 14 14 15
15 19 21 20 20 22 21 18 18 22 24 25 27 28 28 28 25 25 24 21 20 16 18 8 18 4 8 8 8 12 14 15 14
21 17 17 18 20 19 18 18 18 22 25 26 27 24 26 26 24 23 25 27 24 22 19 22 18 15 11 9 9 11 13 15 18
18 17 18 15 17 18 20 20 19 20 24 27 20 21 22 22 23 26 26 25 26 24 23 21 21 20 18 17 16 15 16 16 17
16 18 20 14 13 19 18 20 20 19 20 20 21 22 24 25 24 25 24 24 24 25 23 23 24 24 22 22 21 19 18 19 20
9 12 18 16 14 17 19 15 18 18 18 19 19 23 24 26 23 22 23 23 23 23 24 26 24 25 26 24 23 22 21 20 20
7 7 8 11 14 12 9 12 14 17 16 16 18 20 25 23 21 24 25 24 24 24 25 26 24 25 25 25 25 24 24 21 20
11 14 16 18 17 15 15 15 12 15 14 13 14 21 21 22 21 23 24 25 26 28 26 25 27 25 26 28 26 26 26 26 22
16 19 22 23 25 24 23 15 14 18 17 16 15 15 16 16 18 20 19 21 25 26 25 25 25 26 27 28 28 26 25 25 24
21 24 28 28 28 31 25 17 16 17 16 16 16 17 17 15 14 14 16 20 21 21 22 23 23 23 24 27 27 24 26 24 22
19 21 21 23 25 24 27 22 26 16 15 17 15 16 17 18 17 16 16 16 17 17 18 20 19 21 22 25 25 22 22 23 22
23 25 26 26 26 26 24 24 27 29 30 30 15 18 21 21 22 20 18 17 16 17 18 18 18 19 18 21 21 21 20 21 22
25 27 28 29 29 29 30 29 33 35 36 36 37 32 25 23 24 22 23 21 19 17 20 20 19 18 18 19 19 19 20 21 24
26 29 26 24 28 27 27 21 25 29 30 28 30 28 24 25 23 22 23 21 20 20 20 20 19 20 22 23 22 23 21 22 23
29 26 23 25 27 26 20 21 23 23 23 23 23 22 19 18 18 18 19 21 19 18 18 19 20 22 22 23 24 24 25 25 22
30 28 25 25 25 22 21 21 22 22 22 23 22 20 19 18 18 16 16 17 19 17 18 21 21 21 21 23 25 24 29 32 30
30 31 29 28 26 23 21 21 22 23 22 22 21 17 17 16 16 15 17 17 18 22 21 18 19 20 23 25 27 33 35 36 37
31 32 31 30 27 22 22 23 23 21 19 17 17 17 16 15 15 18 14 14 15 16 16 13 17 21 24 27 31 35 38 40 42
Wind_Direction
185 180 179 171 172 174 175 176 173 177 177 177 177 178 179 183 187 177 187 184 168 174 161 160 154 161 152 151 151 162 158 137 141
193 182 174 171 171 176 178 175 174 173 175 176 177 179 179 182 185 183 183 183 180 173 176 159 161 163 162 159 156 160 167 159 147
198 183 177 173 172 175 177 176 176 174 174 175 177 179 182 183 185 186 184 186 184 185 182 182 324 168 167 162 163 162 169 169 169
202 187 179 171 172 175 177 180 180 177 176 174 176 179 181 183 183 185 187 185 186 186 187 174 184 164 172 172 169 173 176 180 179
239 218 184 174 168 177 185 183 181 180 178 177 178 177 179 183 184 185 188 190 190 187 186 190 185 184 179 181 182 182 185 188 190
196 237 227 186 172 174 181 182 182 181 180 181 182 181 182 184 187 187 189 189 191 190 190 189 190 189 187 184 185 188 190 193 196
242 225 238 198 189 178 181 186 187 186 185 186 185 184 186 188 190 191 191 191 192 194 194 196 198 197 194 194 194 193 195 197 199
229 215 237 230 227 193 179 201 195 196 194 191 189 188 189 193 194 195 197 196 196 197 198 201 201 201 201 199 198 199 198 198 202
248 263 248 254 250 255 252 222 201 197 197 198 196 192 192 194 196 197 200 201 201 201 202 202 202 202 202 203 204 204 203 201 203
259 260 262 261 257 257 259 258 244 228 220 225 215 192 194 193 194 196 200 203 204 204 204 204 206 207 206 209 210 210 209 207 208
261 263 264 265 262 265 266 260 249 252 248 237 229 230 208 203 200 201 203 203 206 206 208 210 209 211 212 214 216 216 216 216 217
265 265 260 265 266 259 263 261 254 243 241 237 226 213 214 224 231 220 212 211 211 213 211 214 217 218 216 218 223 224 223 224 229
276 274 274 269 268 270 262 268 261 270 245 246 233 219 233 254 246 237 229 230 226 229 226 219 220 223 225 223 228 233 233 232 241
277 273 274 274 276 274 278 278 270 267 263 261 237 258 264 264 264 253 255 257 249 249 248 251 240 239 244 233 235 239 243 242 245
278 276 278 274 272 271 272 274 269 264 263 263 261 263 265 268 271 266 266 261 264 260 263 260 257 258 256 265 268 259 259 252 249
280 280 283 287 278 277 279 281 273 266 268 271 268 268 268 269 271 269 267 263 264 266 266 266 268 272 277 283 286 287 280 274 267
282 287 289 288 283 278 280 284 283 279 279 278 274 274 277 276 275 274 270 269 267 267 268 270 275 281 287 289 291 294 295 294 283
279 285 290 289 285 284 284 286 283 286 287 285 278 274 278 280 278 277 277 274 273 272 275 280 283 283 289 294 297 302 304 306 309
280 281 284 283 283 285 287 288 287 287 287 285 284 277 278 280 280 278 279 279 281 279 285 292 295 301 301 302 306 304 304 305 305
281 280 281 282 282 285 286 287 285 288 290 290 289 285 283 286 284 297 272 285 282 285 294 302 308 309 310 312 309 309 308 306 304